SCP
0 0 0 0 0 0 0 0 0 0 0 0 0 0 0 0 0 0 0 0 0 0 0 0 0 0 0 0 0 0 0 0 0 0 0 0 0 0 0 0 0 0 0 0 0 0 0
0 0 0 0 0 0 0 0 0 0 0 0 0 0 0 0 0 0 0 0 0 0 0 0 0 0 0 0 0 0 0 0 0 0 0 0 0 0 0 0 0 0 0 0 0 0 0
-0 -0 -0 -0 -0 0 0 0 0 0 0 0 0 0 0 0 0 0 0 0 0 0 0 0 0 0 0 0 0 0 0 0 0 0 0 0 0 0 0 0 0 0 0 0 0 0 0
-0 -0 -0 -0 -0 0 0 0 0 0 0 0 0 0 0 0 0 0 0 0 0 0 0 0 0 0 0 0 0 0 0 0 0 0 0 0 0 0 0 0 0 0 0 0 0 0 0
-0 -0 -0 -0 -0 -0 0 0 0 0 0 0 0 0 0 0 0 0 0 0 0 0 0 0 0 -0 0 0 0 0 0 0 0 0 0 0 0 0 0 0 0 0 0 0 0 0 0
-0 -0 -0 -0 -0 -0 0 0 0 0 0 0 0 0 0 0 0 0 0 0 0 0 -0 0 0 0 0 0 0 0 0 0 0 0 0 0 0 0 0 0 0 0 0 0 0 0 0
-0 -0 -0 -0 0 0 0 0 0 0 0 0 0 0 0 0 0 0 0 -0 -0 0 0 -0 0 0 0 0 0 0 0 0 0 0 0 0 0 0 0 0 0 0 0 0 0 0 0
-0 -0 -0 0 0 0 0 0 0 0 0 0 0 0 0 0 -0 0 -0 -0 0 0 -0 0 0 0 0 0 0 0 0 0 0 0 0 0 0 0 0 0 0 0 0 0 0 0 0
-0 -0 0 0 0 0 0 0 0 0 0 0 0 0 -0 -0 -0 0 0 0 0 0 -0 0 -0 0 0 0 0 0 0 0 0 0 0 0 0 0 0 0 0 0 0 0 0 0 0
-0 -0 0 0 0 0 0 0 0 0 0 0 0 0 -0 -0 0 0 0 0 0 0 0 0 0 0 0 0 0 0 0 0 0 0 0 0 0 0 0 0 0 0 0 0 0 0 0
-0 0 0 0 0 0 0 0 0 0 0 0 0 0 0 0 0 0 0 0 0 0 0 0 0 0 0 0 0 0 0 0 0 0 0 0 0 0 0 0 -0 -0 -0 -0 0 0 0
0 0 0 0 0 0 0 0 0 0 0 0 0 0 0 0 0 0 0 0 0 0 0 0 0 0 0 0 0 0 0 0 0 0 -0 0 0 0 0 0 0 0 0 0 0 0 0
0 0 0 0 0 0 0 0 0 0 0 0 0 -0 0 0 0 0 0 0 0 0 0 0 0 0 0 0 0 0 0 0 0 0 0 0 0 0 0 0 0 0 0 0 0 0 0
0 0 0 0 0 0 0 0 0 0 0 0 0 0 0 0 0 0 0 0 0 0 0 0 0 -0 0 0 0 0 0 0 0 0 0 0 0 0 0 0 0 0 0 0 0 0 0
0 0 0 0 0 0 0 0 0 0 0 0 0 0 0 0 0 0 0 0 0 0 0 0 0 0 0 0 0 0 0 0 0 0 0 0 0 0 0 0 0 0 0 0 0 0 0
0 0 0 0 0 0 0 0 0 0 0 0 0 0 0 0 0 0 0 0 0 0 0 0 0 0 0 0 0 0 0 0 0 0 0 0 0 0 0 0 0 0 0 0 0 0 0
0 0 0 0 0 0 0 0 0 0 0 0 0 0 0 0 0 0 0 0 0 0 0 0 0 0 0 0 0 0 0 0 0 0 0 0 0 0 -0 0 0 0 0 0 0 0 0
0 0 0 0 0 0 0 0 0 -0 0 0 0 0 0 0 0 0 0 0 0 0 -0 0 0 0 0 0 0 0 0 0 0 0 0 0 0 0 0 0 0 0 0 0 0 0 0
0 0 0 0 0 0 0 0 0 0 -0 0 0 0 0 0 0 0 0 0 0 0 0 0 0 -0 -0 0 0 0 0 0 0 0 0 0 0 0 0 0 0 0 0 0 0 0 0
-0 0 0 0 0 0 0 0 0 0 0 0 0 0 0 0 0 0 0 0 0 0 0 0 0 0 0 0 0 0 0 0 0 0 0 0 0 0 0 0 0 0 0 0 0 0 0
-0 -0 0 0 0 0 0 0 0 0 0 0 0 0 0 0 0 0 0 0 -0 0 -0 -0 -0 0 0 0 0 0 0 0 0 0 0 0 0 0 0 0 0 0 0 0 0 0 0
-0 -0 0 0 0 0 0 0 0 0 0 0 0 0 0 0 0 0 0 0 0 0 0 -0 0 -0 -0 0 0 0 0 -0 0 0 0 0 0 -0 0 0 0 0 0 0 0 0 0
-0 -0 -0 0 0 0 0 0 0 0 0 0 0 0 0 0 0 -0 0 0 0 0 -0 -0 -0 -0 -0 -0 0 0 0 0 0 0 0 0 0 0 0 0 0 0 0 0 0 0 0
-0 -0 -0 0 0 0 0 0 0 0 0 0 0 0 0 0 0 0 0 0 -0 -0 -0 0 0 0 0 0 -0 0 0 0 0 0 0 0 0 0 0 0 0 0 0 0 0 0 0
-0 -0 -0 -0 0 0 0 0 0 0 0 0 0 0 0 0 0 0 0 -0 0 -0 -0 0 -0 0 0 0 0 0 0 0 0 0 0 0 0 0 0 0 0 0 0 0 0 0 0
-0 -0 -0 -0 0 0 0 0 0 0 0 0 0 0 0 0 0 0 0 0 -0 -0 -0 -0 0 0 0 0 0 0 0 0 0 0 0 0 0 0 0 0 0 0 0 0 0 0 -0
0 -0 -0 -0 0 0 0 0 0 0 0 0 0 0 0 0 0 0 0 -0 0 0 -0 -0 -0 0 -0 0 0 0 0 0 0 0 0 0 0 0 0 0 0 0 0 0 0 0 0
0 -0 -0 0 0 0 0 0 0 0 0 0 0 0 0 0 0 0 0 0 -0 0 -0 0 -0 0 0 0 0 0 0 0 0 0 0 0 0 0 0 0 0 0 0 0 0 -0 0
0 -0 -0 0 0 0 0 0 0 0 0 0 0 0 0 0 0 0 0 0 0 0 0 0 -0 -0 0 0 0 0 0 0 0 0 0 0 0 0 0 0 0 0 0 0 0 0 0
Wind_Speed_500mb
38 36 37 41 40 38 41 44 45 46 45 42 39 36 35 35 36 30 28 28 27 27 26 26 24 20 22 34 60 19 13 9 33 40 43 32 35 20 15 29 46 48 31 29 16 10 12
34 35 38 42 43 44 46 46 48 49 48 41 38 38 33 33 35 28 29 27 26 26 24 23 24 19 24 42 23 38 39 20 19 45 49 47 19 33 12 17 36 35 27 25 17 15 13
36 37 39 43 45 47 49 49 50 50 46 42 35 37 33 31 31 27 27 24 24 22 22 21 24 19 28 50 16 23 28 30 29 47 58 56 42 23 16 10 28 14 27 28 32 22 15
34 38 41 45 47 49 48 46 46 48 44 37 32 31 30 30 27 25 23 20 20 19 19 20 22 21 26 17 32 39 25 23 31 34 52 50 55 42 18 9 23 11 10 28 32 32 17
33 37 40 43 46 49 47 46 44 41 36 32 28 26 27 26 22 22 20 17 18 18 19 20 18 17 27 14 15 19 21 17 17 16 45 40 58 20 19 7 8 20 15 40 29 36 18
30 33 36 40 43 48 49 45 33 28 25 24 22 22 22 21 22 21 17 15 17 18 17 17 17 15 14 10 18 12 20 20 13 17 31 30 22 11 9 18 13 15 33 31 41 29 27
26 28 31 36 44 46 45 36 12 5 14 16 20 19 20 21 24 18 12 12 11 9 12 14 8 25 14 22 16 8 12 14 12 10 10 30 17 25 34 27 14 16 26 31 45 21 31
23 25 26 34 38 40 39 30 22 17 16 18 16 17 19 20 17 13 11 6 7 8 15 13 16 22 22 19 14 4 8 18 12 16 18 11 24 26 16 12 9 6 31 20 14 4 18
20 21 24 29 32 35 33 30 22 20 19 17 15 18 21 21 16 9 5 8 10 11 12 3 5 7 9 10 10 6 4 12 14 15 7 23 5 31 20 15 17 8 5 26 8 7 21
16 19 21 24 27 28 30 31 28 23 18 17 19 20 17 22 10 9 5 11 8 10 7 8 5 4 8 10 7 12 7 10 11 11 4 11 14 18 20 23 18 12 15 12 22 13 12
12 16 19 23 25 26 28 29 27 23 19 19 22 21 25 19 4 5 9 9 7 6 8 10 8 7 12 8 14 8 7 6 11 8 6 6 3 15 20 24 28 12 32 22 14 21 10
10 14 17 20 20 22 24 27 23 20 22 24 21 22 21 8 4 1 3 4 7 7 6 8 10 11 11 5 5 12 3 3 2 6 5 3 3 2 6 13 27 5 18 13 4 1 5
10 13 15 16 17 20 24 29 27 25 23 22 18 12 7 5 3 3 2 4 7 8 4 10 8 13 18 7 6 4 2 11 11 10 9 3 3 2 7 13 9 23 21 5 5 5 2
13 14 16 18 21 24 26 28 26 24 23 19 13 8 3 1 13 3 4 3 8 3 3 7 9 18 7 9 4 3 6 11 18 10 11 11 10 10 2 12 8 29 15 8 4 8 7
16 16 18 19 21 23 24 25 22 20 18 15 14 10 7 3 1 3 5 5 7 2 1 10 16 6 2 6 5 3 7 11 7 20 10 10 9 4 7 11 12 9 11 7 9 6 5
20 20 19 19 21 23 22 22 19 15 12 8 8 8 5 5 4 4 4 6 0 0 4 5 6 5 7 8 3 4 7 1 8 19 21 6 4 5 3 7 3 9 19 8 1 10 9
23 22 21 21 21 20 16 13 6 4 2 6 8 6 8 4 3 2 3 3 4 8 6 3 5 6 9 8 5 7 7 7 11 14 25 13 3 5 3 7 0 10 8 5 4 5 4
26 25 23 21 18 14 9 6 1 2 4 12 8 2 8 3 3 2 3 2 3 6 13 10 7 9 7 7 7 9 12 8 7 13 23 12 4 5 3 7 10 9 10 14 6 7 2
28 28 24 20 16 12 7 3 3 7 10 8 4 5 5 4 4 2 1 5 6 6 11 7 9 14 3 5 10 15 14 8 18 10 14 16 10 4 5 4 4 5 5 6 7 4 7
31 28 25 19 14 8 5 4 7 9 10 3 1 2 1 3 3 3 3 3 5 7 13 12 15 13 7 12 18 9 10 12 8 22 37 13 2 11 7 6 2 8 10 11 3 4 10
35 30 26 19 14 9 6 4 2 5 8 4 1 2 2 1 3 7 3 3 10 5 10 9 8 20 14 8 7 17 27 36 37 28 27 16 10 8 4 6 3 4 19 19 18 6 8
38 33 28 22 17 11 9 8 7 7 9 3 3 3 1 1 4 4 9 6 10 4 7 6 12 10 13 15 17 11 8 16 25 17 25 29 5 10 4 11 10 1 9 10 5 4 6
39 35 30 24 19 15 10 7 6 4 7 4 5 6 3 6 5 4 4 4 5 3 14 22 17 16 22 22 22 20 29 32 19 16 12 19 9 8 4 5 7 7 17 17 9 13 3
41 37 33 28 25 18 12 8 7 5 5 7 6 5 4 2 4 7 3 8 15 18 20 13 18 18 8 21 43 27 30 32 31 35 31 16 12 2 5 5 7 1 1 22 24 12 17
43 41 36 35 34 28 21 14 11 7 4 3 3 5 5 6 2 8 9 11 20 16 21 28 29 15 24 25 8 9 8 10 11 10 21 13 6 6 10 9 7 6 10 13 12 18 24
46 42 38 37 36 32 28 21 15 12 8 5 4 5 5 5 3 3 6 6 7 8 7 7 7 23 10 4 6 6 7 6 12 8 4 9 7 6 6 7 10 6 6 4 17 9 2
48 42 36 34 30 28 26 23 19 16 14 10 10 7 5 5 5 2 2 5 6 4 7 10 15 6 5 4 4 4 3 5 8 18 12 11 4 9 9 5 2 4 10 19 11 1 21
48 42 40 35 32 26 18 22 20 18 16 15 14 10 7 7 8 4 2 4 7 3 6 14 10 3 4 4 5 4 4 3 2 3 7 7 11 7 4 5 7 3 2 10 5 4 4
48 43 41 33 26 18 16 18 17 16 16 17 16 9 7 6 6 6 4 4 3 4 10 11 9 5 6 6 1 4 1 3 4 6 3 6 4 4 3 4 3 3 5 5 5 4 2
Wind_Direction_500mb
313 318 313 306 308 300 294 287 281 282 282 277 274 273 268 261 262 265 266 267 278 278 278 283 292 274 245 239 233 292 218 222 220 221 229 248 195 211 181 184 195 217 187 211 212 253 286
318 318 317 315 312 308 301 295 288 283 281 279 270 266 261 254 258 256 260 262 277 277 277 281 287 276 254 253 248 248 258 263 262 218 220 227 221 211 223 211 216 193 194 198 205 235 262
324 321 317 312 308 305 299 292 286 281 280 276 273 261 254 252 251 248 255 259 271 281 277 279 283 279 258 245 260 257 266 261 265 219 214 235 241 217 180 203 213 226 203 232 229 230 265
325 323 319 319 318 314 308 300 286 278 273 271 263 256 246 246 242 236 249 260 275 280 274 276 279 281 267 276 255 261 265 261 258 226 214 219 240 249 206 176 168 162 181 211 226 222 233
330 331 330 333 333 328 321 305 287 273 269 259 251 242 234 235 223 221 232 265 279 275 276 280 283 254 273 291 270 253 247 250 250 230 209 223 221 226 173 192 138 195 188 216 207 184 188
335 338 343 346 347 344 339 326 296 263 251 241 228 225 224 210 204 210 231 271 281 280 282 276 265 269 267 305 307 262 234 233 237 243 182 203 217 197 201 181 197 195 193 203 212 184 209
343 346 354 359 3 360 357 4 33 204 198 195 201 209 198 195 196 213 233 284 295 265 238 250 309 270 311 318 306 243 233 219 222 271 193 191 203 240 201 210 217 179 179 196 213 165 190
351 357 2 9 13 13 19 33 65 108 137 162 180 183 180 186 178 213 225 271 307 304 300 261 278 277 289 306 296 270 214 204 195 225 217 203 232 218 229 159 110 45 186 200 216 32 232
4 4 12 20 26 29 38 52 75 96 112 130 148 159 166 171 162 210 216 257 296 325 271 261 314 303 302 318 294 311 248 216 226 224 271 245 122 217 215 207 195 230 346 208 181 141 273
18 19 30 36 39 40 48 59 72 86 101 119 138 152 152 144 173 231 237 261 297 332 283 343 359 18 335 298 262 320 285 247 201 207 190 281 236 196 189 181 207 197 197 265 216 185 203
36 42 50 52 53 55 58 64 72 86 103 118 130 136 147 150 261 176 271 282 304 336 283 16 359 337 326 313 327 15 243 244 247 144 247 76 336 229 228 202 184 223 177 175 241 189 163
60 62 64 64 65 65 66 67 72 90 109 116 123 132 146 185 172 268 343 342 322 248 245 355 329 330 325 7 315 318 199 271 301 128 100 230 187 221 293 236 190 147 136 77 131 140 216
91 81 77 74 76 78 80 83 86 92 97 101 107 121 154 213 199 272 341 327 267 257 345 357 338 342 335 323 319 313 236 201 206 196 217 294 202 232 263 207 251 197 146 117 194 179 212
111 101 95 92 90 91 93 93 94 96 97 93 91 83 96 301 202 310 17 302 265 56 310 318 294 316 313 10 307 346 249 239 223 262 205 209 230 157 264 232 161 189 189 164 205 173 125
128 118 109 104 102 98 97 97 97 94 86 79 68 45 53 51 356 355 339 248 346 25 2 338 317 318 60 7 293 324 265 271 251 212 209 189 251 144 203 324 166 164 200 42 107 12 140
139 129 120 116 111 104 100 101 102 91 71 43 350 349 339 340 337 27 35 292 231 208 328 354 312 18 321 14 269 276 282 241 249 230 243 124 291 54 80 326 140 220 143 96 65 179 213
154 143 134 129 121 113 111 106 115 100 37 321 316 306 303 299 3 320 273 320 299 238 228 219 312 305 282 318 283 301 289 280 238 227 222 146 64 22 187 212 10 141 161 190 182 262 283
166 157 152 147 137 127 125 114 100 27 328 321 301 312 307 279 294 39 273 233 292 247 227 262 262 260 267 336 294 256 265 255 359 261 213 212 269 257 288 275 286 289 175 176 193 192 58
178 170 166 163 153 139 146 145 303 328 326 312 285 268 312 147 263 216 206 274 267 237 232 228 239 230 217 268 246 224 282 304 271 263 214 169 210 277 186 141 251 176 247 130 120 54 195
191 188 183 183 179 181 216 271 293 324 342 345 269 300 12 174 207 275 274 251 269 242 262 255 277 249 234 238 233 272 277 285 346 251 253 231 237 216 340 15 69 172 193 224 168 157 165
196 201 202 207 206 208 245 282 296 320 339 19 170 240 163 282 199 249 293 293 278 285 210 225 251 235 241 253 251 243 254 266 276 264 241 237 221 172 62 295 316 207 173 184 193 205 205
200 207 217 220 218 227 245 272 284 300 308 260 211 199 239 14 306 265 214 239 256 227 238 224 237 230 240 263 251 281 310 267 246 205 218 215 291 173 89 317 323 13 208 154 214 273 285
208 208 214 213 226 234 250 274 276 302 297 235 195 232 212 139 163 224 226 240 254 240 240 232 261 284 277 280 273 272 271 266 275 318 199 193 198 166 139 327 296 282 202 184 170 211 273
211 210 213 221 234 235 249 265 269 289 285 210 222 188 202 219 221 235 292 286 271 264 267 273 270 248 251 296 309 265 247 250 260 266 245 170 161 49 107 198 234 130 206 192 196 209 217
212 220 223 229 238 247 247 247 257 267 250 224 226 176 194 273 285 275 331 299 289 271 260 265 266 281 287 314 256 184 175 190 195 218 168 224 150 126 167 204 306 178 177 177 170 246 210
215 224 230 235 240 246 240 238 240 251 253 259 272 235 208 272 198 158 330 313 313 325 287 254 302 325 315 273 260 280 143 119 157 121 354 169 349 292 189 149 208 62 127 156 167 277 341
218 220 222 231 233 247 220 224 229 244 256 274 286 273 213 224 203 179 309 298 295 283 282 295 338 321 357 283 292 337 133 343 149 150 154 155 151 215 199 131 351 99 173 139 163 13 337
210 210 215 220 232 232 220 219 229 241 256 274 287 283 224 202 207 208 209 256 309 6 306 327 301 178 311 298 327 1 355 69 132 6 106 152 168 170 123 111 217 152 245 189 34 346 347
205 202 205 215 219 223 221 222 236 238 261 274 278 286 211 190 159 145 151 110 66 326 306 306 315 307 358 295 287 280 238 272 342 117 272 138 349 105 353 79 34 139 10 341 360 34 103
Wind_Speed_850mb
38 36 37 41 40 38 41 44 45 46 45 42 39 36 35 35 36 30 28 28 27 27 26 26 24 20 22 34 60 19 13 9 33 40 43 32 35 20 15 29 46 48 31 29 16 10 12
34 35 38 42 43 44 46 46 48 49 48 41 38 38 33 33 35 28 29 27 26 26 24 23 24 19 24 42 23 38 39 20 19 45 49 47 19 33 12 17 36 35 27 25 17 15 13
36 37 39 43 45 47 49 49 50 50 46 42 35 37 33 31 31 27 27 24 24 22 22 21 24 19 28 50 16 23 28 30 29 47 58 56 42 23 16 10 28 14 27 28 32 22 15
34 38 41 45 47 49 48 46 46 48 44 37 32 31 30 30 27 25 23 20 20 19 19 20 22 21 26 17 32 39 25 23 31 34 52 50 55 42 18 9 23 11 10 28 32 32 17
33 37 40 43 46 49 47 46 44 41 36 32 28 26 27 26 22 22 20 17 18 18 19 20 18 17 27 14 15 19 21 17 17 16 45 40 58 20 19 7 8 20 15 40 29 36 18
30 33 36 40 43 48 49 45 33 28 25 24 22 22 22 21 22 21 17 15 17 18 17 17 17 15 14 10 18 12 20 20 13 17 31 30 22 11 9 18 13 15 33 31 41 29 27
26 28 31 36 44 46 45 36 12 5 14 16 20 19 20 21 24 18 12 12 11 9 12 14 8 25 14 22 16 8 12 14 12 10 10 30 17 25 34 27 14 16 26 31 45 21 31
23 25 26 34 38 40 39 30 22 17 16 18 16 17 19 20 17 13 11 6 7 8 15 13 16 22 22 19 14 4 8 18 12 16 18 11 24 26 16 12 9 6 31 20 14 4 18
20 21 24 29 32 35 33 30 22 20 19 17 15 18 21 21 16 9 5 8 10 11 12 3 5 7 9 10 10 6 4 12 14 15 7 23 5 31 20 15 17 8 5 26 8 7 21
16 19 21 24 27 28 30 31 28 23 18 17 19 20 17 22 10 9 5 11 8 10 7 8 5 4 8 10 7 12 7 10 11 11 4 11 14 18 20 23 18 12 15 12 22 13 12
12 16 19 23 25 26 28 29 27 23 19 19 22 21 25 19 4 5 9 9 7 6 8 10 8 7 12 8 14 8 7 6 11 8 6 6 3 15 20 24 28 12 32 22 14 21 10
10 14 17 20 20 22 24 27 23 20 22 24 21 22 21 8 4 1 3 4 7 7 6 8 10 11 11 5 5 12 3 3 2 6 5 3 3 2 6 13 27 5 18 13 4 1 5
10 13 15 16 17 20 24 29 27 25 23 22 18 12 7 5 3 3 2 4 7 8 4 10 8 13 18 7 6 4 2 11 11 10 9 3 3 2 7 13 9 23 21 5 5 5 2
13 14 16 18 21 24 26 28 26 24 23 19 13 8 3 1 13 3 4 3 8 3 3 7 9 18 7 9 4 3 6 11 18 10 11 11 10 10 2 12 8 29 15 8 4 8 7
16 16 18 19 21 23 24 25 22 20 18 15 14 10 7 3 1 3 5 5 7 2 1 10 16 6 2 6 5 3 7 11 7 20 10 10 9 4 7 11 12 9 11 7 9 6 5
20 20 19 19 21 23 22 22 19 15 12 8 8 8 5 5 4 4 4 6 0 0 4 5 6 5 7 8 3 4 7 1 8 19 21 6 4 5 3 7 3 9 19 8 1 10 9
23 22 21 21 21 20 16 13 6 4 2 6 8 6 8 4 3 2 3 3 4 8 6 3 5 6 9 8 5 7 7 7 11 14 25 13 3 5 3 7 0 10 8 5 4 5 4
26 25 23 21 18 14 9 6 1 2 4 12 8 2 8 3 3 2 3 2 3 6 13 10 7 9 7 7 7 9 12 8 7 13 23 12 4 5 3 7 10 9 10 14 6 7 2
28 28 24 20 16 12 7 3 3 7 10 8 4 5 5 4 4 2 1 5 6 6 11 7 9 14 3 5 10 15 14 8 18 10 14 16 10 4 5 4 4 5 5 6 7 4 7
31 28 25 19 14 8 5 4 7 9 10 3 1 2 1 3 3 3 3 3 5 7 13 12 15 13 7 12 18 9 10 12 8 22 37 13 2 11 7 6 2 8 10 11 3 4 10
35 30 26 19 14 9 6 4 2 5 8 4 1 2 2 1 3 7 3 3 10 5 10 9 8 20 14 8 7 17 27 36 37 28 27 16 10 8 4 6 3 4 19 19 18 6 8
38 33 28 22 17 11 9 8 7 7 9 3 3 3 1 1 4 4 9 6 10 4 7 6 12 10 13 15 17 11 8 16 25 17 25 29 5 10 4 11 10 1 9 10 5 4 6
39 35 30 24 19 15 10 7 6 4 7 4 5 6 3 6 5 4 4 4 5 3 14 22 17 16 22 22 22 20 29 32 19 16 12 19 9 8 4 5 7 7 17 17 9 13 3
41 37 33 28 25 18 12 8 7 5 5 7 6 5 4 2 4 7 3 8 15 18 20 13 18 18 8 21 43 27 30 32 31 35 31 16 12 2 5 5 7 1 1 22 24 12 17
43 41 36 35 34 28 21 14 11 7 4 3 3 5 5 6 2 8 9 11 20 16 21 28 29 15 24 25 8 9 8 10 11 10 21 13 6 6 10 9 7 6 10 13 12 18 24
46 42 38 37 36 32 28 21 15 12 8 5 4 5 5 5 3 3 6 6 7 8 7 7 7 23 10 4 6 6 7 6 12 8 4 9 7 6 6 7 10 6 6 4 17 9 2
48 42 36 34 30 28 26 23 19 16 14 10 10 7 5 5 5 2 2 5 6 4 7 10 15 6 5 4 4 4 3 5 8 18 12 11 4 9 9 5 2 4 10 19 11 1 21
48 42 40 35 32 26 18 22 20 18 16 15 14 10 7 7 8 4 2 4 7 3 6 14 10 3 4 4 5 4 4 3 2 3 7 7 11 7 4 5 7 3 2 10 5 4 4
48 43 41 33 26 18 16 18 17 16 16 17 16 9 7 6 6 6 4 4 3 4 10 11 9 5 6 6 1 4 1 3 4 6 3 6 4 4 3 4 3 3 5 5 5 4 2
Wind_Direction_850mb
313 318 313 306 308 300 294 287 281 282 282 277 274 273 268 261 262 265 266 267 278 278 278 283 292 274 245 239 233 292 218 222 220 221 229 248 195 211 181 184 195 217 187 211 212 253 286
318 318 317 315 312 308 301 295 288 283 281 279 270 266 261 254 258 256 260 262 277 277 277 281 287 276 254 253 248 248 258 263 262 218 220 227 221 211 223 211 216 193 194 198 205 235 262
324 321 317 312 308 305 299 292 286 281 280 276 273 261 254 252 251 248 255 259 271 281 277 279 283 279 258 245 260 257 266 261 265 219 214 235 241 217 180 203 213 226 203 232 229 230 265
325 323 319 319 318 314 308 300 286 278 273 271 263 256 246 246 242 236 249 260 275 280 274 276 279 281 267 276 255 261 265 261 258 226 214 219 240 249 206 176 168 162 181 211 226 222 233
330 331 330 333 333 328 321 305 287 273 269 259 251 242 234 235 223 221 232 265 279 275 276 280 283 254 273 291 270 253 247 250 250 230 209 223 221 226 173 192 138 195 188 216 207 184 188
335 338 343 346 347 344 339 326 296 263 251 241 228 225 224 210 204 210 231 271 281 280 282 276 265 269 267 305 307 262 234 233 237 243 182 203 217 197 201 181 197 195 193 203 212 184 209
343 346 354 359 3 360 357 4 33 204 198 195 201 209 198 195 196 213 233 284 295 265 238 250 309 270 311 318 306 243 233 219 222 271 193 191 203 240 201 210 217 179 179 196 213 165 190
351 357 2 9 13 13 19 33 65 108 137 162 180 183 180 186 178 213 225 271 307 304 300 261 278 277 289 306 296 270 214 204 195 225 217 203 232 218 229 159 110 45 186 200 216 32 232
4 4 12 20 26 29 38 52 75 96 112 130 148 159 166 171 162 210 216 257 296 325 271 261 314 303 302 318 294 311 248 216 226 224 271 245 122 217 215 207 195 230 346 208 181 141 273
18 19 30 36 39 40 48 59 72 86 101 119 138 152 152 144 173 231 237 261 297 332 283 343 359 18 335 298 262 320 285 247 201 207 190 281 236 196 189 181 207 197 197 265 216 185 203
36 42 50 52 53 55 58 64 72 86 103 118 130 136 147 150 261 176 271 282 304 336 283 16 359 337 326 313 327 15 243 244 247 144 247 76 336 229 228 202 184 223 177 175 241 189 163
60 62 64 64 65 65 66 67 72 90 109 116 123 132 146 185 172 268 343 342 322 248 245 355 329 330 325 7 315 318 199 271 301 128 100 230 187 221 293 236 190 147 136 77 131 140 216
91 81 77 74 76 78 80 83 86 92 97 101 107 121 154 213 199 272 341 327 267 257 345 357 338 342 335 323 319 313 236 201 206 196 217 294 202 232 263 207 251 197 146 117 194 179 212
111 101 95 92 90 91 93 93 94 96 97 93 91 83 96 301 202 310 17 302 265 56 310 318 294 316 313 10 307 346 249 239 223 262 205 209 230 157 264 232 161 189 189 164 205 173 125
128 118 109 104 102 98 97 97 97 94 86 79 68 45 53 51 356 355 339 248 346 25 2 338 317 318 60 7 293 324 265 271 251 212 209 189 251 144 203 324 166 164 200 42 107 12 140
139 129 120 116 111 104 100 101 102 91 71 43 350 349 339 340 337 27 35 292 231 208 328 354 312 18 321 14 269 276 282 241 249 230 243 124 291 54 80 326 140 220 143 96 65 179 213
154 143 134 129 121 113 111 106 115 100 37 321 316 306 303 299 3 320 273 320 299 238 228 219 312 305 282 318 283 301 289 280 238 227 222 146 64 22 187 212 10 141 161 190 182 262 283
166 157 152 147 137 127 125 114 100 27 328 321 301 312 307 279 294 39 273 233 292 247 227 262 262 260 267 336 294 256 265 255 359 261 213 212 269 257 288 275 286 289 175 176 193 192 58
178 170 166 163 153 139 146 145 303 328 326 312 285 268 312 147 263 216 206 274 267 237 232 228 239 230 217 268 246 224 282 304 271 263 214 169 210 277 186 141 251 176 247 130 120 54 195
191 188 183 183 179 181 216 271 293 324 342 345 269 300 12 174 207 275 274 251 269 242 262 255 277 249 234 238 233 272 277 285 346 251 253 231 237 216 340 15 69 172 193 224 168 157 165
196 201 202 207 206 208 245 282 296 320 339 19 170 240 163 282 199 249 293 293 278 285 210 225 251 235 241 253 251 243 254 266 276 264 241 237 221 172 62 295 316 207 173 184 193 205 205
200 207 217 220 218 227 245 272 284 300 308 260 211 199 239 14 306 265 214 239 256 227 238 224 237 230 240 263 251 281 310 267 246 205 218 215 291 173 89 317 323 13 208 154 214 273 285
208 208 214 213 226 234 250 274 276 302 297 235 195 232 212 139 163 224 226 240 254 240 240 232 261 284 277 280 273 272 271 266 275 318 199 193 198 166 139 327 296 282 202 184 170 211 273
211 210 213 221 234 235 249 265 269 289 285 210 222 188 202 219 221 235 292 286 271 264 267 273 270 248 251 296 309 265 247 250 260 266 245 170 161 49 107 198 234 130 206 192 196 209 217
212 220 223 229 238 247 247 247 257 267 250 224 226 176 194 273 285 275 331 299 289 271 260 265 266 281 287 314 256 184 175 190 195 218 168 224 150 126 167 204 306 178 177 177 170 246 210
215 224 230 235 240 246 240 238 240 251 253 259 272 235 208 272 198 158 330 313 313 325 287 254 302 325 315 273 260 280 143 119 157 121 354 169 349 292 189 149 208 62 127 156 167 277 341
218 220 222 231 233 247 220 224 229 244 256 274 286 273 213 224 203 179 309 298 295 283 282 295 338 321 357 283 292 337 133 343 149 150 154 155 151 215 199 131 351 99 173 139 163 13 337
210 210 215 220 232 232 220 219 229 241 256 274 287 283 224 202 207 208 209 256 309 6 306 327 301 178 311 298 327 1 355 69 132 6 106 152 168 170 123 111 217 152 245 189 34 346 347
205 202 205 215 219 223 221 222 236 238 261 274 278 286 211 190 159 145 151 110 66 326 306 306 315 307 358 295 287 280 238 272 342 117 272 138 349 105 353 79 34 139 10 341 360 34 103